SCP
0 0 0 0 0 0 0 0 0 0 0 0 0 0 0 0 0 0 0 0 0 0 0 0 0 0 0 0 0 0 0 0 0 0 0 0 0 0 0 0 0 0 0
0 0 0 0 0 0 0 0 0 0 0 0 0 0 0 0 0 0 0 0 0 0 0 0 0 0 0 0 0 0 -0 -0 -0 0 0 0 0 0 0 0 0 0 0
0 0 0 0 0 0 0 0 0 0 0 0 0 0 0 0 0 0 0 0 0 0 0 0 0 0 0 0 0 0 0 0 0 -0 0 0 0 0 0 0 0 0 0
0 0 0 0 0 0 0 0 0 0 0 0 0 0 0 0 0 0 0 0 0 0 0 0 0 0 0 0 0 0 0 0 0 0 0 0 0 0 0 0 0 0 0
0 0 0 0 0 0 0 0 0 0 0 0 0 0 0 0 0 0 0 0 0 0 0 0 0 0 0 0 0 0 0 0 0 0 0 0 0 0 0 0 0 0 0
0 0 0 0 0 0 0 0 0 0 0 0 0 0 0 0 0 0 0 0 0 0 0 0 0 0 0 0 0 0 0 0 0 0 0 0 0 0 0 0 0 0 0
0 0 0 0 0 0 0 0 0 0 0 0 0 0 0 0 0 0 0 0 0 0 0 0 0 0 0 0 0 0 0 0 0 0 0 0 0 0 0 0 0 0 0
0 0 0 0 0 0 0 0 0 0 0 0 0 0 0 0 0 0 0 0 0 0 0 0 0 0 0 0 0 0 0 0 0 0 0 0 0 0 0 0 0 0 0
0 0 0 0 0 0 0 0 0 0 0 0 0 0 0 0 0 0 0 0 0 0 0 0 0 0 0 0 0 0 0 0 0 0 0 0 0 0 0 0 0 0 0
0 0 0 0 0 0 0 0 0 0 0 0 0 0 0 0 0 0 0 0 0 0 0 0 0 0 0 0 0 0 0 0 0 0 0 0 0 0 0 0 0 0 0
0 0 0 0 0 0 0 0 0 0 0 0 0 0 0 0 0 0 0 0 0 0 0 0 0 0 0 0 0 0 0 0 0 0 0 0 0 0 0 0 0 0 0
0 0 0 0 0 0 0 0 0 0 0 0 0 0 0 0 0 0 0 0 0 0 0 0 0 0 0 0 0 0 0 0 0 0 0 0 0 0 0 0 0 0 0
0 0 0 0 0 0 0 0 0 0 0 0 0 0 0 0 0 0 0 0 0 0 0 0 0 0 0 0 0 0 0 0 0 0 0 0 0 0 0 0 0 0 0
0 0 0 0 0 0 0 0 0 0 0 0 0 0 0 0 0 0 0 0 0 0 0 0 0 0 0 0 0 0 0 0 0 0 0 0 0 0 0 0 0 0 0
0 0 0 0 0 0 0 0 0 0 0 0 0 0 0 0 0 0 0 0 0 0 0 0 0 0 0 0 0 0 0 0 0 0 0 0 0 0 0 0 0 0 0
0 0 0 0 0 0 0 0 0 0 0 0 0 0 0 0 0 0 0 0 0 0 0 0 0 0 0 0 0 0 0 0 0 0 0 0 0 0 0 0 0 0 0
0 0 0 0 0 0 0 0 0 0 0 0 0 0 0 0 0 0 0 0 0 0 0 0 0 0 0 0 0 0 0 0 0 0 0 0 0 0 0 0 0 0 0
0 0 0 0 0 0 0 0 0 0 0 0 0 0 0 0 0 0 0 0 0 0 0 0 0 0 0 0 0 0 0 0 0 0 0 0 -0 -0 0 0 0 0 0
0 0 0 0 0 0 0 0 0 0 0 0 0 0 0 0 0 0 0 0 0 0 0 0 0 0 0 0 0 0 0 0 0 -0 0 -0 -0 -0 -0 0 0 0 0
0 0 0 0 0 0 0 0 0 0 0 0 0 0 0 0 0 0 0 0 0 0 0 0 0 0 0 0 0 0 0 0 0 0 0 0 0 -0 0 0 0 0 -0
0 0 0 0 0 0 0 0 0 0 0 0 0 0 0 0 0 0 0 0 0 0 0 0 0 0 0 0 0 0 0 0 0 0 0 0 0 0 0 0 0 0 0
0 0 0 0 0 0 0 0 0 0 0 0 0 0 0 0 0 0 0 0 0 0 0 0 0 0 0 0 0 0 0 0 0 0 0 0 0 0 0 0 0 0 -0
0 0 0 0 0 0 0 0 0 0 0 0 0 0 0 0 0 0 0 0 0 0 0 0 0 0 0 0 0 0 0 0 0 0 0 0 0 0 0 0 -0 0 0
0 0 0 0 0 0 0 0 0 0 0 0 0 0 0 0 0 0 0 0 0 0 0 0 0 0 0 0 0 0 0 0 0 0 0 0 0 0 0 0 0 -0 0
0 0 0 0 0 0 0 0 0 0 0 0 0 0 0 0 0 0 0 0 0 0 0 0 0 0 0 0 0 0 0 0 0 0 0 0 0 0 0 0 0 0 0
0 0 0 0 0 0 0 0 0 0 0 0 0 0 0 0 0 0 0 0 0 0 0 0 0 0 0 0 0 0 0 0 0 0 0 0 0 0 0 0 0 0 0
Wind_Speed_500mb
4 2 1 3 4 6 7 9 11 13 15 17 21 24 27 29 30 34 38 39 40 43 43 44 46 47 47 48 49 55 56 55 59 66 73 62 80 71 72 68 61 58 58
6 4 5 5 6 8 10 11 11 12 13 16 22 29 32 35 38 37 37 40 43 43 44 44 45 48 49 49 51 53 53 58 60 62 63 67 79 77 80 87 76 80 67
11 10 9 9 9 10 11 12 13 17 22 27 26 31 34 39 41 42 41 42 44 42 37 37 46 45 46 49 51 54 55 56 59 58 62 66 67 76 72 85 87 99 90
11 14 12 10 11 12 13 14 19 22 28 33 37 35 37 41 42 46 44 44 39 39 36 46 42 45 47 51 53 57 58 59 60 60 65 69 70 70 71 75 79 82 88
15 12 10 10 12 17 20 22 24 29 30 34 43 44 45 45 47 45 40 36 31 33 45 43 46 45 52 57 55 60 61 60 63 61 66 70 75 77 75 80 80 78 78
19 18 14 17 19 21 24 29 30 32 35 38 45 47 48 45 39 32 30 29 43 43 44 43 47 47 55 51 51 55 56 61 61 56 60 64 70 66 72 79 83 85 85
21 19 20 23 25 27 29 30 32 34 33 37 47 50 46 34 32 17 49 31 43 31 51 47 56 58 56 53 57 57 59 60 58 57 60 62 66 69 73 73 73 72 79
26 25 27 29 30 31 33 30 31 32 30 32 39 46 34 45 35 57 40 52 37 57 54 67 61 60 60 58 61 56 54 56 64 68 68 66 68 72 73 75 75 75 77
33 31 31 31 32 32 32 28 25 24 28 33 41 29 18 15 55 44 45 45 59 59 71 64 68 55 61 55 53 55 61 68 76 82 85 87 85 80 79 80 80 81 81
37 36 34 34 33 30 28 25 25 25 33 36 31 29 28 33 33 41 45 66 56 75 67 76 54 62 55 53 54 64 71 78 83 86 88 91 95 99 91 87 86 87 88
37 35 32 29 26 21 20 23 26 31 25 24 28 32 36 38 41 51 71 82 84 83 76 38 61 52 54 48 55 71 81 77 80 82 85 88 90 92 90 90 91 91 91
39 36 30 24 22 24 25 25 18 18 22 27 31 34 37 40 46 52 68 82 86 80 52 69 67 54 45 60 83 80 82 81 80 82 82 83 83 81 81 81 80 80 83
39 35 28 28 26 20 15 13 14 19 22 25 29 32 35 39 43 49 57 72 82 86 63 59 45 48 78 86 82 82 83 85 85 85 80 79 80 80 80 82 81 81 84
35 34 29 23 20 15 11 14 17 20 23 25 28 31 35 38 42 48 55 65 85 77 53 45 57 86 90 87 87 87 86 85 86 81 74 74 75 78 82 82 84 85 84
36 31 29 24 18 14 13 14 17 20 23 27 31 34 37 39 41 42 45 51 57 64 69 57 89 92 86 87 84 84 88 87 85 82 79 75 76 79 82 84 83 82 81
39 35 30 23 17 14 13 14 17 20 25 31 34 37 39 40 40 42 43 43 45 49 49 79 82 80 82 81 82 84 83 86 83 84 84 79 79 79 79 80 81 80 79
42 37 30 23 18 15 14 15 18 24 29 33 36 38 39 40 40 40 41 42 44 49 59 72 70 72 72 79 81 82 85 85 88 84 85 83 80 76 76 77 79 79 78
42 35 27 22 17 15 15 17 22 25 29 32 35 37 38 38 37 38 41 43 46 46 53 67 65 67 69 77 81 79 81 82 82 81 88 82 78 81 79 78 80 82 81
40 33 27 22 17 14 15 18 21 25 29 32 33 34 35 35 36 37 39 42 44 46 45 52 60 61 67 70 72 73 75 79 80 78 81 76 79 79 79 84 89 86 79
38 32 25 20 16 14 15 18 21 25 29 30 30 31 31 32 35 39 41 43 44 43 43 46 53 59 61 64 65 76 81 84 85 82 74 73 74 75 81 99 99 88 76
37 31 24 20 16 14 16 18 20 24 26 26 27 27 28 32 37 41 42 41 39 38 40 45 47 54 56 60 66 72 79 84 78 78 72 71 71 75 80 93 92 90 88
36 30 25 21 17 15 17 20 22 23 23 24 23 25 30 35 38 39 40 36 29 32 35 38 43 45 45 50 58 65 69 76 83 75 71 62 59 67 70 75 76 81 83
36 30 26 22 18 17 19 21 19 20 20 21 23 25 28 34 36 34 33 28 25 26 31 33 34 36 38 45 55 59 59 61 60 60 70 57 49 54 57 65 70 70 75
36 30 27 23 21 20 23 22 18 20 19 21 23 26 28 31 30 30 28 25 24 25 28 24 26 27 30 39 47 52 55 54 55 47 65 56 48 39 47 54 60 63 68
36 31 29 27 24 25 24 21 19 20 19 20 22 25 26 26 24 27 25 27 26 21 21 20 18 19 26 36 46 48 47 54 57 43 60 56 57 52 31 49 53 56 62
38 35 33 28 27 28 28 22 23 22 20 20 21 24 25 24 21 22 25 28 29 26 21 12 11 18 26 35 43 42 42 45 49 36 51 56 57 55 29 43 46 50 54
Wind_Direction_500mb
162 115 54 29 17 7 3 4 9 14 19 12 1 359 351 344 341 339 337 332 328 328 322 322 323 320 315 310 308 306 302 301 294 299 295 300 299 300 297 296 295 296 296
217 238 271 304 317 331 340 344 345 344 343 343 342 335 332 328 326 325 325 326 327 322 320 319 318 316 313 310 308 306 302 301 302 299 296 293 293 289 293 285 289 283 286
238 250 267 282 305 325 330 339 350 349 337 328 327 324 326 320 321 324 323 321 321 322 322 322 317 317 317 312 308 306 306 304 299 299 298 297 296 295 293 277 294 280 277
268 255 269 292 309 320 333 341 326 320 319 320 317 319 313 312 314 318 318 318 319 320 320 315 317 313 314 313 309 313 309 304 304 303 299 298 297 296 295 289 289 287 284
263 284 301 309 316 323 319 312 311 309 309 314 310 310 307 307 309 309 313 314 323 315 319 322 319 315 318 318 315 313 311 307 305 307 301 295 293 289 293 290 289 290 286
264 272 283 285 292 290 299 303 302 301 318 316 310 308 308 311 312 305 318 317 317 313 318 326 329 326 326 324 324 323 320 317 316 313 312 306 305 307 296 292 289 284 287
268 271 275 279 283 289 295 301 302 306 314 312 310 316 330 336 338 343 327 339 325 336 333 337 334 332 329 328 325 322 320 321 326 323 319 317 311 311 309 305 304 300 290
258 260 267 279 284 285 294 297 301 306 312 316 317 326 333 339 333 328 335 332 336 331 335 335 336 335 331 332 329 325 321 316 315 319 320 318 314 312 306 305 301 300 297
254 260 266 269 274 284 286 288 295 301 308 306 316 321 325 302 319 326 330 332 326 331 333 336 336 339 338 331 327 327 326 323 318 313 310 309 309 310 308 305 303 300 297
250 256 261 266 271 274 275 276 287 292 294 303 315 323 322 317 325 319 316 328 330 331 339 339 345 341 334 339 334 329 322 319 314 310 307 304 300 297 302 304 301 298 297
250 256 259 262 264 262 258 264 273 292 302 310 318 321 322 323 323 321 321 325 328 340 342 352 344 341 342 340 330 322 318 320 317 314 311 307 306 305 303 302 300 300 297
248 251 252 245 242 250 254 266 276 297 312 317 321 325 326 327 324 325 321 324 326 332 347 339 341 342 339 331 329 330 331 330 327 324 321 318 317 314 313 312 309 307 304
241 241 230 241 242 234 238 264 292 304 310 315 318 320 323 324 323 323 322 324 326 331 336 341 340 340 331 333 337 336 338 339 335 333 329 326 321 319 317 314 311 310 308
226 225 226 215 210 220 249 279 295 304 309 315 320 323 323 324 325 326 328 328 328 326 333 330 333 331 339 341 343 344 344 344 346 342 335 329 325 322 318 314 312 310 307
229 220 208 206 214 232 261 283 298 307 315 322 325 326 326 324 325 325 326 327 329 324 326 325 329 339 342 343 347 346 347 347 349 349 340 332 327 324 321 318 316 313 311
210 201 204 211 228 248 265 288 303 314 324 325 325 325 323 323 323 324 324 323 322 319 314 323 335 339 343 344 347 350 351 355 356 354 350 342 334 330 328 325 321 319 316
198 201 208 218 228 250 272 292 312 323 325 324 325 323 321 322 324 325 325 324 325 325 322 327 339 342 343 344 349 356 1 4 2 359 359 352 344 335 332 330 327 323 319
200 205 212 223 234 256 283 311 320 323 324 323 323 322 323 324 325 327 328 330 331 334 335 334 341 345 347 350 354 359 6 8 4 7 2 358 356 355 348 343 336 330 323
205 210 215 224 242 267 298 311 316 321 320 321 323 324 325 327 331 333 333 334 338 343 340 336 340 345 348 353 357 2 4 3 4 7 6 5 8 5 4 2 360 351 346
208 213 219 233 251 278 297 306 314 317 318 322 324 327 331 333 336 338 339 341 344 341 342 342 343 341 348 357 3 359 359 1 0 5 11 14 18 19 26 28 19 19 24
209 215 223 239 258 277 290 301 310 311 314 319 326 331 336 337 342 344 345 343 340 343 343 342 336 342 353 358 1 359 358 358 6 4 15 18 21 23 28 39 31 34 33
211 218 229 242 253 269 286 296 300 304 313 319 327 335 338 341 343 345 339 332 341 337 334 326 333 340 353 357 357 358 360 2 1 5 15 23 22 25 29 40 38 28 26
215 222 234 242 251 268 281 286 286 298 305 313 325 334 338 340 339 336 328 336 338 337 325 321 335 348 355 356 353 353 358 359 359 6 12 21 23 29 28 25 25 27 28
219 226 236 241 254 267 272 272 281 291 302 315 323 329 334 334 330 325 331 334 333 336 327 331 343 349 352 350 350 350 349 354 6 7 9 7 12 13 18 16 16 21 24
223 230 235 243 255 263 267 272 278 285 295 310 315 320 323 324 324 327 335 329 336 341 339 330 335 340 343 345 344 343 346 355 3 7 6 1 3 358 346 2 8 14 18
224 230 233 242 255 265 268 268 271 277 288 299 312 312 312 314 324 329 328 329 332 341 346 322 309 322 329 334 331 335 346 355 355 1 358 358 360 1 351 349 349 4 12
Wind_Speed_850mb
4 2 1 3 4 6 7 9 11 13 15 17 21 24 27 29 30 34 38 39 40 43 43 44 46 47 47 48 49 55 56 55 59 66 73 62 80 71 72 68 61 58 58
6 4 5 5 6 8 10 11 11 12 13 16 22 29 32 35 38 37 37 40 43 43 44 44 45 48 49 49 51 53 53 58 60 62 63 67 79 77 80 87 76 80 67
11 10 9 9 9 10 11 12 13 17 22 27 26 31 34 39 41 42 41 42 44 42 37 37 46 45 46 49 51 54 55 56 59 58 62 66 67 76 72 85 87 99 90
11 14 12 10 11 12 13 14 19 22 28 33 37 35 37 41 42 46 44 44 39 39 36 46 42 45 47 51 53 57 58 59 60 60 65 69 70 70 71 75 79 82 88
15 12 10 10 12 17 20 22 24 29 30 34 43 44 45 45 47 45 40 36 31 33 45 43 46 45 52 57 55 60 61 60 63 61 66 70 75 77 75 80 80 78 78
19 18 14 17 19 21 24 29 30 32 35 38 45 47 48 45 39 32 30 29 43 43 44 43 47 47 55 51 51 55 56 61 61 56 60 64 70 66 72 79 83 85 85
21 19 20 23 25 27 29 30 32 34 33 37 47 50 46 34 32 17 49 31 43 31 51 47 56 58 56 53 57 57 59 60 58 57 60 62 66 69 73 73 73 72 79
26 25 27 29 30 31 33 30 31 32 30 32 39 46 34 45 35 57 40 52 37 57 54 67 61 60 60 58 61 56 54 56 64 68 68 66 68 72 73 75 75 75 77
33 31 31 31 32 32 32 28 25 24 28 33 41 29 18 15 55 44 45 45 59 59 71 64 68 55 61 55 53 55 61 68 76 82 85 87 85 80 79 80 80 81 81
37 36 34 34 33 30 28 25 25 25 33 36 31 29 28 33 33 41 45 66 56 75 67 76 54 62 55 53 54 64 71 78 83 86 88 91 95 99 91 87 86 87 88
37 35 32 29 26 21 20 23 26 31 25 24 28 32 36 38 41 51 71 82 84 83 76 38 61 52 54 48 55 71 81 77 80 82 85 88 90 92 90 90 91 91 91
39 36 30 24 22 24 25 25 18 18 22 27 31 34 37 40 46 52 68 82 86 80 52 69 67 54 45 60 83 80 82 81 80 82 82 83 83 81 81 81 80 80 83
39 35 28 28 26 20 15 13 14 19 22 25 29 32 35 39 43 49 57 72 82 86 63 59 45 48 78 86 82 82 83 85 85 85 80 79 80 80 80 82 81 81 84
35 34 29 23 20 15 11 14 17 20 23 25 28 31 35 38 42 48 55 65 85 77 53 45 57 86 90 87 87 87 86 85 86 81 74 74 75 78 82 82 84 85 84
36 31 29 24 18 14 13 14 17 20 23 27 31 34 37 39 41 42 45 51 57 64 69 57 89 92 86 87 84 84 88 87 85 82 79 75 76 79 82 84 83 82 81
39 35 30 23 17 14 13 14 17 20 25 31 34 37 39 40 40 42 43 43 45 49 49 79 82 80 82 81 82 84 83 86 83 84 84 79 79 79 79 80 81 80 79
42 37 30 23 18 15 14 15 18 24 29 33 36 38 39 40 40 40 41 42 44 49 59 72 70 72 72 79 81 82 85 85 88 84 85 83 80 76 76 77 79 79 78
42 35 27 22 17 15 15 17 22 25 29 32 35 37 38 38 37 38 41 43 46 46 53 67 65 67 69 77 81 79 81 82 82 81 88 82 78 81 79 78 80 82 81
40 33 27 22 17 14 15 18 21 25 29 32 33 34 35 35 36 37 39 42 44 46 45 52 60 61 67 70 72 73 75 79 80 78 81 76 79 79 79 84 89 86 79
38 32 25 20 16 14 15 18 21 25 29 30 30 31 31 32 35 39 41 43 44 43 43 46 53 59 61 64 65 76 81 84 85 82 74 73 74 75 81 99 99 88 76
37 31 24 20 16 14 16 18 20 24 26 26 27 27 28 32 37 41 42 41 39 38 40 45 47 54 56 60 66 72 79 84 78 78 72 71 71 75 80 93 92 90 88
36 30 25 21 17 15 17 20 22 23 23 24 23 25 30 35 38 39 40 36 29 32 35 38 43 45 45 50 58 65 69 76 83 75 71 62 59 67 70 75 76 81 83
36 30 26 22 18 17 19 21 19 20 20 21 23 25 28 34 36 34 33 28 25 26 31 33 34 36 38 45 55 59 59 61 60 60 70 57 49 54 57 65 70 70 75
36 30 27 23 21 20 23 22 18 20 19 21 23 26 28 31 30 30 28 25 24 25 28 24 26 27 30 39 47 52 55 54 55 47 65 56 48 39 47 54 60 63 68
36 31 29 27 24 25 24 21 19 20 19 20 22 25 26 26 24 27 25 27 26 21 21 20 18 19 26 36 46 48 47 54 57 43 60 56 57 52 31 49 53 56 62
38 35 33 28 27 28 28 22 23 22 20 20 21 24 25 24 21 22 25 28 29 26 21 12 11 18 26 35 43 42 42 45 49 36 51 56 57 55 29 43 46 50 54
Wind_Direction_850mb
162 115 54 29 17 7 3 4 9 14 19 12 1 359 351 344 341 339 337 332 328 328 322 322 323 320 315 310 308 306 302 301 294 299 295 300 299 300 297 296 295 296 296
217 238 271 304 317 331 340 344 345 344 343 343 342 335 332 328 326 325 325 326 327 322 320 319 318 316 313 310 308 306 302 301 302 299 296 293 293 289 293 285 289 283 286
238 250 267 282 305 325 330 339 350 349 337 328 327 324 326 320 321 324 323 321 321 322 322 322 317 317 317 312 308 306 306 304 299 299 298 297 296 295 293 277 294 280 277
268 255 269 292 309 320 333 341 326 320 319 320 317 319 313 312 314 318 318 318 319 320 320 315 317 313 314 313 309 313 309 304 304 303 299 298 297 296 295 289 289 287 284
263 284 301 309 316 323 319 312 311 309 309 314 310 310 307 307 309 309 313 314 323 315 319 322 319 315 318 318 315 313 311 307 305 307 301 295 293 289 293 290 289 290 286
264 272 283 285 292 290 299 303 302 301 318 316 310 308 308 311 312 305 318 317 317 313 318 326 329 326 326 324 324 323 320 317 316 313 312 306 305 307 296 292 289 284 287
268 271 275 279 283 289 295 301 302 306 314 312 310 316 330 336 338 343 327 339 325 336 333 337 334 332 329 328 325 322 320 321 326 323 319 317 311 311 309 305 304 300 290
258 260 267 279 284 285 294 297 301 306 312 316 317 326 333 339 333 328 335 332 336 331 335 335 336 335 331 332 329 325 321 316 315 319 320 318 314 312 306 305 301 300 297
254 260 266 269 274 284 286 288 295 301 308 306 316 321 325 302 319 326 330 332 326 331 333 336 336 339 338 331 327 327 326 323 318 313 310 309 309 310 308 305 303 300 297
250 256 261 266 271 274 275 276 287 292 294 303 315 323 322 317 325 319 316 328 330 331 339 339 345 341 334 339 334 329 322 319 314 310 307 304 300 297 302 304 301 298 297
250 256 259 262 264 262 258 264 273 292 302 310 318 321 322 323 323 321 321 325 328 340 342 352 344 341 342 340 330 322 318 320 317 314 311 307 306 305 303 302 300 300 297
248 251 252 245 242 250 254 266 276 297 312 317 321 325 326 327 324 325 321 324 326 332 347 339 341 342 339 331 329 330 331 330 327 324 321 318 317 314 313 312 309 307 304
241 241 230 241 242 234 238 264 292 304 310 315 318 320 323 324 323 323 322 324 326 331 336 341 340 340 331 333 337 336 338 339 335 333 329 326 321 319 317 314 311 310 308
226 225 226 215 210 220 249 279 295 304 309 315 320 323 323 324 325 326 328 328 328 326 333 330 333 331 339 341 343 344 344 344 346 342 335 329 325 322 318 314 312 310 307
229 220 208 206 214 232 261 283 298 307 315 322 325 326 326 324 325 325 326 327 329 324 326 325 329 339 342 343 347 346 347 347 349 349 340 332 327 324 321 318 316 313 311
210 201 204 211 228 248 265 288 303 314 324 325 325 325 323 323 323 324 324 323 322 319 314 323 335 339 343 344 347 350 351 355 356 354 350 342 334 330 328 325 321 319 316
198 201 208 218 228 250 272 292 312 323 325 324 325 323 321 322 324 325 325 324 325 325 322 327 339 342 343 344 349 356 1 4 2 359 359 352 344 335 332 330 327 323 319
200 205 212 223 234 256 283 311 320 323 324 323 323 322 323 324 325 327 328 330 331 334 335 334 341 345 347 350 354 359 6 8 4 7 2 358 356 355 348 343 336 330 323
205 210 215 224 242 267 298 311 316 321 320 321 323 324 325 327 331 333 333 334 338 343 340 336 340 345 348 353 357 2 4 3 4 7 6 5 8 5 4 2 360 351 346
208 213 219 233 251 278 297 306 314 317 318 322 324 327 331 333 336 338 339 341 344 341 342 342 343 341 348 357 3 359 359 1 0 5 11 14 18 19 26 28 19 19 24
209 215 223 239 258 277 290 301 310 311 314 319 326 331 336 337 342 344 345 343 340 343 343 342 336 342 353 358 1 359 358 358 6 4 15 18 21 23 28 39 31 34 33
211 218 229 242 253 269 286 296 300 304 313 319 327 335 338 341 343 345 339 332 341 337 334 326 333 340 353 357 357 358 360 2 1 5 15 23 22 25 29 40 38 28 26
215 222 234 242 251 268 281 286 286 298 305 313 325 334 338 340 339 336 328 336 338 337 325 321 335 348 355 356 353 353 358 359 359 6 12 21 23 29 28 25 25 27 28
219 226 236 241 254 267 272 272 281 291 302 315 323 329 334 334 330 325 331 334 333 336 327 331 343 349 352 350 350 350 349 354 6 7 9 7 12 13 18 16 16 21 24
223 230 235 243 255 263 267 272 278 285 295 310 315 320 323 324 324 327 335 329 336 341 339 330 335 340 343 345 344 343 346 355 3 7 6 1 3 358 346 2 8 14 18
224 230 233 242 255 265 268 268 271 277 288 299 312 312 312 314 324 329 328 329 332 341 346 322 309 322 329 334 331 335 346 355 355 1 358 358 360 1 351 349 349 4 12